(321573) = 2006 DX121 = 2009 TX8

Discovered at Marly on 2009-10-14 by P. Kocher.

Orbit

Orbit type: Main Belt

Note: WebGL enabled browser required.

epoch2023-09-13.0
epoch JD2460200.5
perihelion date2021-07-11.55076
perihelion JD2459407.05076
argument of perihelion (°)81.48974
ascending node (°)4.17658
inclination (°)15.34414
eccentricity0.0385002
perihelion distance (AU)2.9830645
Tisserand w.r.t. Jupiter3.2
ΔV w.r.t. Earth (km/sec)11.7
semimajor axis (AU)3.1025119
mean anomaly (°)143.10434
mean daily motion (°/day)0.18035730
aphelion distance (AU)3.222
period (years)5.46
P-vector [x]0.07813245
P-vector [y]0.77850093
P-vector [z]0.62276128
Q-vector [x]-0.99675669
Q-vector [y]0.04892565
Q-vector [z]0.06389348
absolute magnitude15.16
phase slope0.15
uncertainty0
referenceMPEC 2023-R23
observations used496
oppositions12
arc length (days)8116
first opposition used2001
last opposition used2023
residual rms (arc-secs)0.72
perturbers coarse indicatorM-v
perturbers precise indicator003Ek
first observation date used2001-03-04.0
last observation date used2023-05-24.0
computer nameMPCLINUX
JD of orbit computation2456966.872683
perihelion JD uncertainty (days)1.5496E-03
argument of perihelion uncertainty (°)2.7443E-04
ascending node uncertainty (°)2.0368E-05
inclination uncertainty (°)1.5934E-05
eccentricity uncertainty 8.4909E-08
perihelion distance uncertainty (AU)2.9850E-07
Minimum Orbit Intersection Distances (in AU)
for orbit epoch: 2460200.5, reference: E2023-R23
Mercury2.67857
Venus2.2937
Earth2.04005
Mars1.40699
Jupiter1.86508
Saturn6.23762
Uranus15.3604
Neptune26.7933

Observations

504 total observations over interval: 2001 03 04.37536 – 2023 05 24.319791
These data are available for download (format description).

Date (UT) J2000 RA J2000 Dec Magn Location Ref
2001 03 04.37536 13 07 12.10 -08 39 48.8 20.6 V 691 – Steward Observatory, Kitt Peak-Spacewatch MPS 300844
2001 03 04.39678 13 07 11.34 -08 39 50.2 20.4 V 691 – Steward Observatory, Kitt Peak-Spacewatch MPS 300844
2001 03 04.41850 13 07 10.55 -08 39 51.5 20.4 V 691 – Steward Observatory, Kitt Peak-Spacewatch MPS 300844
2003 08 23.45074 23 38 59.79 -11 01 09.1 18.9   644 – Palomar Mountain/NEAT MPS 313581
2003 08 23.46396 23 38 59.19 -11 01 10.2 18.9   644 – Palomar Mountain/NEAT MPS 313581
2003 08 23.47517 23 38 58.69 -11 01 11.4 18.7   644 – Palomar Mountain/NEAT MPS 313581
2006 02 22.31005 10 59 16.32 +17 56 44.1 19.7   704 – Lincoln Laboratory ETS, New Mexico MPS 166300
2006 02 22.32280 10 59 15.52 +17 56 45.7 19.9   704 – Lincoln Laboratory ETS, New Mexico MPS 166300
2006 02 22.33546 10 59 14.83 +17 56 47.1 19.4   704 – Lincoln Laboratory ETS, New Mexico MPS 166300
2006 02 22.34831 10 59 14.10 +17 56 48.3 19.7   704 – Lincoln Laboratory ETS, New Mexico MPS 166300
2006 02 28.31151 10 53 44.12 +18 06 40.6 19.8 V 703 – Catalina Sky Survey MPS 166300
2006 02 28.31638 10 53 43.80 +18 06 42.1 20.3 V 703 – Catalina Sky Survey MPS 166300
2006 02 28.32130 10 53 43.36 +18 06 41.3 19.2 V 703 – Catalina Sky Survey MPS 166300
2006 02 28.32619 10 53 43.22 +18 06 41.3 19.6 V 703 – Catalina Sky Survey MPS 166300
2006 05 30.16013 10 32 47.07 +12 19 52.0 20.7 V G96 – Mt. Lemmon Survey MPS 300844
2006 05 30.16867 10 32 47.36 +12 19 48.3 20.6 V G96 – Mt. Lemmon Survey MPS 300844
2006 05 30.17711 10 32 47.68 +12 19 44.4 20.6 V G96 – Mt. Lemmon Survey MPS 300844
2006 05 30.18552 10 32 47.94 +12 19 40.7 20.6 V G96 – Mt. Lemmon Survey MPS 300844
2009 10 14.33716 01 45 25.16 +21 00 36.4 19.0 V G96 – Mt. Lemmon Survey MPS 298440
2009 10 14.34382 01 45 24.73 +21 00 35.8 19.4 V G96 – Mt. Lemmon Survey MPS 298440
2009 10 14.35073 01 45 24.33 +21 00 35.9 19.2 V G96 – Mt. Lemmon Survey MPS 298440
2009 10 14.35756 01 45 23.94 +21 00 36.0 19.2 V G96 – Mt. Lemmon Survey MPS 298440
2009 10 14.91657 01 44 52.72 +21 00 33.7 18.8 R A13 – Observatoire Naef, Ependes MPS 298440
2009 10 14.93670 01 44 51.58 +21 00 33.4 19.1 R A13 – Observatoire Naef, Ependes MPS 298440
2009 10 14.95665 01 44 50.45 +21 00 33.1 18.9 R A13 – Observatoire Naef, Ependes MPS 298440
2009 10 15.81381 01 44 02.30 +21 00 27.3 18.7 R A13 – Observatoire Naef, Ependes MPS 298440
2009 10 15.87248 01 43 58.94 +21 00 26.9 18.8 R A13 – Observatoire Naef, Ependes MPS 298440
2009 10 16.33792 01 43 32.34 +21 00 23.2 19.0 V 703 – Catalina Sky Survey MPS 299540
2009 10 16.34795 01 43 31.80 +21 00 22.8 19.1 V 703 – Catalina Sky Survey MPS 299540
2009 10 16.35809 01 43 31.11 +21 00 22.0 18.9 V 703 – Catalina Sky Survey MPS 299540
2009 10 16.36804 01 43 30.39 +21 00 23.3 17.7 V 703 – Catalina Sky Survey MPS 299540
2009 10 18.83613 01 41 10.27 +20 59 23.6 19.1 R A13 – Observatoire Naef, Ependes MPS 299540
2009 10 18.87118 01 41 08.23 +20 59 23.0 19.2 R A13 – Observatoire Naef, Ependes MPS 299540
2009 10 18.90628 01 41 06.19 +20 59 21.6 19.2 R A13 – Observatoire Naef, Ependes MPS 299540
2009 10 19.84001 01 40 12.84 +20 58 48.4 18.9 R A13 – Observatoire Naef, Ependes MPS 299540
2009 10 19.87573 01 40 10.73 +20 58 47.5 19.0 R A13 – Observatoire Naef, Ependes MPS 299540
2009 10 19.90262 01 40 09.16 +20 58 46.7 19.1 R A13 – Observatoire Naef, Ependes MPS 299540
2009 10 27.89890 01 32 34.79 +20 50 22.2 18.9 V J75 – OAM Observatory, La Sagra MPS 300844
2009 10 27.91073 01 32 34.11 +20 50 21.4 19.3 V J75 – OAM Observatory, La Sagra MPS 300844
2009 10 27.92255 01 32 33.45 +20 50 20.2 19.4 V J75 – OAM Observatory, La Sagra MPS 300844
2009 11 06.20607 01 24 21.34 +20 34 20.9 19.5 V 703 – Catalina Sky Survey MPS 301976
2009 11 06.21202 01 24 21.06 +20 34 18.9 19.5 V 703 – Catalina Sky Survey MPS 301976
2009 11 06.21807 01 24 20.84 +20 34 19.1 19.0 V 703 – Catalina Sky Survey MPS 301976
2009 11 06.22409 01 24 20.55 +20 34 18.8 18.9 V 703 – Catalina Sky Survey MPS 301976
2009 11 16.79787 01 16 35.18 +20 12 31.4 19.1 R A13 – Observatoire Naef, Ependes MPS 303427
2009 11 16.82713 01 16 34.05 +20 12 28.2 19.3 R A13 – Observatoire Naef, Ependes MPS 303427
2009 11 19.20752 01 15 07.81 +20 07 39.5 19.8 V 703 – Catalina Sky Survey MPS 303427
2009 11 19.21358 01 15 07.52 +20 07 38.6 20.0 V 703 – Catalina Sky Survey MPS 303427
2009 11 19.21961 01 15 07.34 +20 07 37.4 19.9 V 703 – Catalina Sky Survey MPS 303427
2009 11 19.22571 01 15 07.20 +20 07 36.9 19.5 V 703 – Catalina Sky Survey MPS 303427
2010 01 12.747573 01 19 17.58 +20 18 36.9   C51 – WISE MPS 329284
2010 01 12.879877 01 19 22.87 +20 19 02.3   C51 – WISE MPS 329284
2010 01 13.012183 01 19 28.44 +20 19 25.2   C51 – WISE MPS 329284
2010 01 13.144487 01 19 33.60 +20 19 47.2   C51 – WISE MPS 329284
2010 01 13.34301 01 19 41.61 +20 20 23.5   C51 – WISE MPS 329284
2010 01 13.475440 01 19 47.09 +20 20 47.0   C51 – WISE MPS 329284
2010 01 13.607745 01 19 52.46 +20 21 09.5   C51 – WISE MPS 329284
2010 01 13.740050 01 19 57.85 +20 21 34.4   C51 – WISE MPS 329284
2010 02 14.12125 01 49 04.00 +22 36 39.4 20.6 V G96 – Mt. Lemmon Survey MPS 313581
2010 02 14.12591 01 49 04.29 +22 36 40.7 20.7 V G96 – Mt. Lemmon Survey MPS 313581
2010 02 14.13057 01 49 04.65 +22 36 42.3 21.1 V G96 – Mt. Lemmon Survey MPS 313581
2010 02 14.13521 01 49 04.98 +22 36 43.2 21.9 V G96 – Mt. Lemmon Survey MPS 313581
2011 12 30.53495 13 14 15.90 -07 07 16.4 21.0 V G96 – Mt. Lemmon Survey MPS 404725
2011 12 30.54024 13 14 16.15 -07 07 19.2 20.8 V G96 – Mt. Lemmon Survey MPS 404725
2011 12 30.54550 13 14 16.40 -07 07 21.6 20.9 V G96 – Mt. Lemmon Survey MPS 404725
2012 02 26.40824 13 30 03.45 -12 16 20.4 19.9 V G96 – Mt. Lemmon Survey MPS 414276
2012 02 26.41463 13 30 03.31 -12 16 21.5 20.1 V G96 – Mt. Lemmon Survey MPS 414276
2012 02 26.42091 13 30 03.20 -12 16 22.6 20.1 V G96 – Mt. Lemmon Survey MPS 414276
2012 02 26.42737 13 30 03.06 -12 16 23.7 20.0 V G96 – Mt. Lemmon Survey MPS 414276
2012 03 15.55831 13 20 36.237 -12 49 30.75 19.6 i F51 – Pan-STARRS 1, Haleakala MPS 417187
2012 03 15.56995 13 20 35.744 -12 49 31.34 19.6 i F51 – Pan-STARRS 1, Haleakala MPS 417187
2012 03 25.26527 13 13 07.64 -12 52 53.3 19.4 V 703 – Catalina Sky Survey MPS 420240
2012 03 25.27041 13 13 07.39 -12 52 54.9 19.1 V 703 – Catalina Sky Survey MPS 420240
2012 03 25.27546 13 13 07.10 -12 52 56.6 18.9 V 703 – Catalina Sky Survey MPS 420240
2012 03 25.28051 13 13 06.88 -12 52 55.5 18.9 V 703 – Catalina Sky Survey MPS 420240
2012 03 31.43303 13 07 49.335 -12 50 23.37 19.4 r F51 – Pan-STARRS 1, Haleakala MPS 420240
2012 03 31.44417 13 07 48.730 -12 50 23.07 19.6 r F51 – Pan-STARRS 1, Haleakala MPS 420240
2012 03 31.45754 13 07 47.981 -12 50 22.61 20.1 g F51 – Pan-STARRS 1, Haleakala MPS 420240
2012 03 31.46984 13 07 47.311 -12 50 22.07 20.2 g F51 – Pan-STARRS 1, Haleakala MPS 420240
2012 04 16.23921 12 53 45.88 -12 32 08.0 18.9 V 703 – Catalina Sky Survey MPS 421819
2012 04 16.24487 12 53 45.60 -12 32 06.6 19.7 V 703 – Catalina Sky Survey MPS 421819
2012 04 16.25048 12 53 45.38 -12 32 06.6 18.6 V 703 – Catalina Sky Survey MPS 421819
2012 04 16.25610 12 53 44.95 -12 32 05.1 19.6 V 703 – Catalina Sky Survey MPS 421819
2012 04 16.38969 12 53 38.108 -12 31 53.02 19.4 w F51 – Pan-STARRS 1, Haleakala MPS 421819
2012 04 16.40287 12 53 37.411 -12 31 51.84 19.4 w F51 – Pan-STARRS 1, Haleakala MPS 421819
2012 04 16.41611 12 53 36.703 -12 31 50.64 19.5 w F51 – Pan-STARRS 1, Haleakala MPS 421819
2012 04 16.42929 12 53 36.001 -12 31 49.44 19.5 w F51 – Pan-STARRS 1, Haleakala MPS 421819
2012 05 10.27340 12 36 52.749 -11 58 18.95 19.4 i F51 – Pan-STARRS 1, Haleakala MPS 423910
2012 05 10.28635 12 36 52.324 -11 58 18.23 19.6 i F51 – Pan-STARRS 1, Haleakala MPS 423910
2014 08 20.48317 00 01 48.573 -06 32 46.26 19.7 w F51 – Pan-STARRS 1, Haleakala MPS 527944
2014 08 20.49535 00 01 48.123 -06 32 46.92 19.8 w F51 – Pan-STARRS 1, Haleakala MPS 527944
2014 08 20.50752 00 01 47.670 -06 32 47.58 19.7 w F51 – Pan-STARRS 1, Haleakala MPS 527944
2014 08 20.51970 00 01 47.217 -06 32 48.28 19.7 w F51 – Pan-STARRS 1, Haleakala MPS 527944
2014 08 23.51441 23 59 55.450 -06 35 45.94 19.7 w F51 – Pan-STARRS 1, Haleakala MPS 529575
